Location: Barrio Las Umbrías
(40.4173°N, 4.8685°W)
Time: 14:10:06
(UTC+00:00)

Cosmos 2056 Rocket - Pass Details

Date: 17 August 2022
Orbit: 742 x 799 km, 74.0° (Epoch: 27 September)

Event Time Altitude Azimuth Distance (km) Brightness Sun altitude
Rises 21:21:08 0° 349° (N) 3,212 7.5 -21.8°
Reaches altitude 10° 21:23:45 10° 360° (N) 2,277 6.5 -22.1°
Maximum altitude 21:28:21 32° 63° (ENE) 1,270 4.4 -22.8°
Enters shadow 21:28:34 32° 68° (ENE) 1,272 4.4 -22.8°
